Theta_e
324 324 324 325 326 326 325 324 323 323 321 318 317 317 316 316 316 315 314 314 313 313 314 315 315 317 318 322 323 323 322 321 323 322 322 322 320 322 321 320 320 317 317 320 320 320 318
325 325 325 325 325 326 326 326 326 326 325 323 323 322 321 319 318 318 318 317 316 315 316 317 317 319 322 322 323 324 324 324 324 323 323 323 322 322 321 320 320 322 320 320 321 321 319
328 328 327 327 326 325 325 326 326 326 326 326 325 325 324 324 323 322 320 320 320 319 318 319 320 321 321 322 322 323 324 324 323 322 322 322 321 320 321 320 322 321 320 319 319 317 316
326 326 327 327 327 327 326 327 327 327 327 326 326 326 326 325 325 324 323 323 322 321 321 320 321 320 320 321 323 324 324 323 322 322 323 323 321 320 320 321 321 321 320 322 321 318 318
327 326 328 327 326 327 326 326 327 327 327 327 327 326 326 326 326 326 325 325 324 323 321 320 321 321 321 323 323 323 322 323 323 322 323 322 320 320 320 320 320 318 323 320 321 318 318
323 325 325 325 325 325 325 325 325 324 322 324 324 324 325 326 326 326 325 325 324 323 322 320 321 320 321 323 323 323 323 322 322 322 323 321 320 318 318 320 326 323 320 317 320 318 317
321 322 323 324 323 322 323 318 317 319 319 318 318 319 320 322 323 324 321 322 322 322 321 322 322 320 322 323 322 323 323 322 321 322 322 320 320 321 321 322 322 321 322 322 318 317 319
318 318 319 319 319 320 319 318 317 318 319 319 318 320 320 320 320 320 319 320 321 321 321 323 324 323 323 324 322 323 323 321 321 322 319 320 322 322 321 321 322 321 323 324 322 320 319
315 315 315 316 315 316 316 316 317 317 317 317 318 319 320 319 318 318 318 318 319 321 319 321 322 323 322 322 322 322 322 321 321 322 321 322 323 322 320 322 323 323 323 323 323 322 321
310 310 310 311 311 311 312 313 314 315 316 316 317 317 317 316 316 316 316 317 317 318 320 320 319 320 321 321 321 321 321 321 320 322 321 321 321 322 321 322 321 324 321 322 323 323 325
309 309 307 307 307 308 309 309 310 312 313 313 314 314 314 314 314 314 315 315 316 316 323 318 319 319 320 320 320 319 321 320 321 321 321 323 322 323 324 323 320 323 321 322 322 322 323
305 305 306 306 306 306 307 307 309 309 309 310 311 312 312 311 312 313 314 314 315 316 318 316 318 319 320 319 320 321 320 320 320 321 321 320 319 320 322 322 322 321 321 323 323 324 327
304 304 304 304 305 305 305 307 306 308 307 308 308 309 310 310 311 312 312 314 315 316 316 317 317 320 320 321 320 319 321 322 323 325 324 322 322 320 320 322 320 320 322 328 329 327 328
301 301 302 302 303 305 305 305 306 306 306 307 307 306 305 308 308 310 311 313 314 314 316 315 316 320 322 321 321 321 319 321 318 320 320 324 322 322 321 322 322 321 323 326 328 327 325
300 300 300 300 300 302 303 301 301 303 303 304 305 305 306 306 307 308 309 313 314 313 313 314 315 316 317 317 321 321 321 321 320 318 322 321 321 318 320 321 321 322 324 322 325 322 323
292 297 298 299 299 300 300 301 301 302 302 302 303 304 304 305 305 305 306 310 309 311 311 312 316 316 318 317 319 321 322 319 321 318 318 320 322 317 316 316 320 321 320 323 324 328 330
297 296 292 295 298 298 299 299 300 300 301 301 300 301 302 304 304 305 306 306 307 308 309 311 312 316 316 318 318 319 321 319 314 316 317 319 320 319 316 317 318 321 323 324 322 321 322
293 296 297 296 292 294 297 298 298 299 299 300 299 300 301 303 304 300 304 305 305 306 306 306 309 311 313 314 313 318 319 319 311 312 320 317 320 323 321 317 316 316 321 322 325 325 322
295 294 293 294 297 296 292 297 298 298 299 299 298 299 301 303 304 303 302 305 303 304 305 305 307 305 306 308 311 313 312 312 313 312 314 316 316 321 319 316 314 317 317 316 315 315 322
295 295 295 295 293 295 296 294 297 297 297 297 298 299 300 301 300 302 302 302 304 302 304 305 305 304 305 306 306 307 307 310 313 313 313 313 313 315 318 314 312 316 314 313 313 317 317
294 295 295 295 296 295 295 294 295 297 298 297 297 298 300 301 300 302 301 302 302 302 302 301 305 304 301 303 301 307 307 307 310 312 312 312 315 312 311 310 309 310 313 315 314 311 315
294 294 294 295 296 296 294 296 292 296 297 297 297 298 298 300 300 300 300 301 301 301 300 300 301 301 300 300 301 302 303 306 307 305 311 310 313 311 311 311 310 310 310 310 312 311 310
294 294 293 295 296 296 295 295 294 295 297 298 297 298 298 298 299 299 297 297 298 299 298 299 299 296 296 299 300 301 303 303 303 304 307 308 310 310 312 309 310 310 308 309 310 309 309
295 294 294 295 296 296 295 294 295 294 297 297 297 297 297 295 295 298 297 298 297 298 292 297 299 298 299 300 301 301 303 304 303 304 304 307 309 309 311 310 311 307 307 308 308 308 307
295 295 294 293 296 296 294 293 294 294 296 297 297 297 296 295 296 296 295 295 296 297 296 298 299 299 298 299 302 301 303 306 304 305 305 305 308 310 307 310 307 306 305 307 307 307 306
295 295 294 294 296 295 293 294 295 294 296 297 297 297 296 292 294 296 293 295 298 298 298 297 297 297 298 301 302 302 304 305 307 306 305 305 305 308 308 310 308 305 306 303 303 304 305
295 295 294 295 295 294 293 295 295 294 296 297 296 296 295 294 294 296 293 294 296 297 297 297 298 299 299 299 300 303 305 302 305 306 307 307 307 307 308 308 306 304 306 306 304 302 305
295 294 295 295 295 293 293 294 295 295 296 296 297 296 296 294 293 296 296 295 295 296 295 296 294 297 297 297 298 300 300 300 301 300 304 307 307 306 307 307 307 304 307 306 303 304 305
294 294 294 294 295 293 294 295 295 296 296 296 296 296 295 294 293 295 295 296 295 295 297 296 296 297 297 297 296 295 299 300 300 300 300 304 302 302 304 305 302 300 303 303 304 305 304
Wind_Speed
29 29 29 30 29 29 29 29 28 28 28 29 28 28 28 27 28 28 28 28 28 29 29 28 26 26 29 21 27 29 10 6 25 30 22 15 14 6 4 4 3 5 5 20 22 19 16
34 33 33 33 33 33 33 32 32 31 32 32 31 30 30 29 29 29 29 29 29 29 30 30 27 26 25 20 26 13 19 39 35 39 38 32 18 10 10 8 5 5 9 15 25 22 13
38 38 37 36 36 36 36 36 36 36 36 36 35 34 33 32 31 31 30 30 30 30 30 30 28 26 30 46 39 41 40 45 34 27 27 24 23 19 3 4 11 9 7 13 12 8 7
39 40 38 38 39 38 39 39 39 40 39 40 40 38 38 35 34 34 32 33 33 33 33 32 30 29 27 41 44 46 40 28 18 14 12 12 11 20 22 12 7 5 4 7 1 1 4
36 36 36 37 38 37 38 38 39 40 39 38 39 40 40 40 38 38 35 35 36 36 35 34 30 24 21 21 20 15 9 5 7 7 10 10 10 9 5 4 5 4 9 7 9 9 7
31 31 32 35 36 37 37 37 38 37 35 35 35 36 39 38 38 37 36 35 36 37 37 34 30 14 21 33 18 16 6 6 7 18 6 7 9 4 4 5 14 9 6 5 7 2 1
29 30 31 30 29 30 27 26 27 29 27 28 29 30 32 32 33 32 29 27 23 14 26 25 20 18 11 6 16 22 24 30 23 11 7 8 4 10 20 23 20 8 9 12 3 6 9
22 24 24 24 26 27 29 29 28 29 28 30 29 26 26 26 25 22 22 22 21 12 16 28 40 48 46 39 33 35 38 19 9 16 8 4 21 16 14 17 17 15 19 19 11 8 8
22 22 23 22 22 23 26 30 32 29 30 27 25 24 22 19 17 17 19 23 25 27 10 19 33 36 42 33 47 42 34 25 22 23 17 23 22 18 14 14 17 19 20 14 16 3 9
16 17 16 18 19 17 17 17 21 24 25 24 22 21 20 18 16 16 17 12 14 11 4 9 8 12 21 18 10 26 43 28 8 18 15 16 22 17 8 19 13 23 9 12 11 3 9
14 15 19 19 19 17 19 20 21 17 19 20 20 20 19 19 9 11 8 10 11 6 5 5 6 2 10 18 5 3 8 33 18 7 8 11 9 18 23 16 11 13 7 13 10 6 4
32 34 32 31 27 24 22 20 22 24 21 16 13 16 17 17 22 15 10 9 13 4 9 6 6 7 8 10 4 7 6 15 11 8 10 18 5 6 8 15 22 11 5 12 10 8 9
24 25 26 25 24 22 26 21 24 24 23 25 21 16 15 16 15 19 13 12 5 7 1 6 7 7 9 8 6 5 7 10 9 9 12 7 22 6 3 3 4 5 6 3 6 6 12
21 24 26 23 21 21 18 13 18 16 20 22 25 29 28 21 17 10 17 7 11 7 13 2 2 4 8 8 7 8 6 7 11 3 4 7 6 14 18 22 13 13 11 7 8 6 8
23 23 21 20 24 25 27 27 21 13 13 18 21 25 30 33 27 26 16 11 8 6 4 4 14 5 3 4 6 7 11 7 8 13 8 6 6 4 7 6 20 11 14 24 8 1 0
26 26 26 23 23 21 23 25 25 28 27 26 18 20 26 28 24 26 7 13 4 4 9 4 5 5 14 6 4 9 8 4 9 12 5 4 4 6 5 4 14 9 6 4 7 8 9
26 25 27 27 26 25 24 22 24 25 23 26 21 7 8 12 18 14 7 4 4 9 11 5 3 5 7 5 5 8 4 1 5 4 6 6 6 5 5 7 10 6 9 3 3 4 5
30 27 27 26 26 28 25 23 22 23 17 18 13 3 3 9 6 2 4 3 1 4 8 3 5 5 4 4 4 4 6 9 3 4 5 4 4 12 13 4 4 2 3 17 8 9 3
27 28 30 31 29 26 27 25 22 18 15 17 5 6 12 17 4 5 2 3 3 2 3 3 4 2 6 5 8 7 7 9 18 8 4 5 3 3 2 3 2 2 3 3 2 3 9
28 29 30 30 32 31 27 28 23 19 16 16 5 2 6 15 6 3 2 4 3 2 2 4 2 3 4 11 8 6 13 12 16 14 26 11 8 7 7 2 4 5 4 5 3 5 7
32 32 33 35 36 35 32 27 26 22 19 18 8 3 3 3 3 5 5 3 2 1 1 2 3 0 5 5 8 4 8 10 12 8 7 12 16 11 9 5 4 2 5 8 7 4 4
35 33 33 34 35 35 33 30 28 25 22 25 8 4 3 2 4 7 7 2 5 3 3 4 4 5 2 4 6 16 17 10 6 10 6 8 6 9 9 10 7 5 7 9 7 4 6
38 37 33 31 30 33 31 29 27 26 25 19 13 7 3 1 1 2 2 3 4 5 6 7 5 3 5 12 12 18 17 14 12 6 3 6 5 7 5 12 10 8 20 14 10 10 13
37 35 32 28 26 28 29 31 30 28 29 29 16 12 4 2 2 2 3 5 5 5 5 4 6 3 5 16 17 19 22 20 16 14 6 3 6 0 2 8 7 2 5 17 19 13 14
32 31 29 29 28 26 26 25 23 26 29 30 24 14 7 2 3 3 3 4 6 10 9 8 9 13 13 10 4 5 4 3 10 15 13 10 3 3 2 5 3 2 3 7 9 10 12
29 29 27 30 26 25 22 22 26 28 28 31 32 22 8 5 5 5 4 3 2 3 4 5 9 8 7 2 3 5 4 4 4 4 11 12 9 5 3 4 6 4 2 6 5 2 4
23 22 22 16 20 23 20 18 27 26 26 36 29 22 12 4 6 6 3 4 4 2 1 3 3 2 5 1 2 2 2 4 3 4 1 4 5 10 6 2 3 4 4 5 6 4 3
13 13 13 15 17 20 18 16 26 25 24 32 28 24 14 5 3 8 8 5 3 1 1 3 3 2 1 2 2 3 2 2 4 4 5 3 3 2 3 3 2 10 6 3 1 4 2
6 8 11 16 14 18 18 16 23 23 22 28 23 19 18 7 3 7 11 10 9 8 3 2 2 2 2 1 1 2 2 2 4 3 4 2 4 3 4 3 2 9 4 7 5 5 0
Wind_Direction
275 277 276 276 276 277 278 280 282 282 282 281 281 283 285 286 287 289 291 293 295 298 301 304 308 309 312 298 275 306 276 242 300 305 298 301 297 263 243 235 248 217 257 271 268 272 270
272 273 273 274 275 276 276 277 279 280 280 279 280 281 282 284 285 286 288 290 292 296 298 301 304 305 307 278 292 311 290 297 294 294 283 274 264 246 274 241 210 254 266 275 287 283 259
270 271 271 274 273 272 273 275 275 276 276 277 277 277 278 279 280 283 285 287 289 291 292 295 299 300 285 264 284 286 285 285 294 287 277 273 254 239 261 285 256 259 289 292 274 245 236
269 268 270 271 272 273 274 276 277 275 275 276 276 275 275 275 276 277 281 283 286 287 288 291 293 293 269 289 292 286 284 280 279 284 280 289 246 243 242 267 310 307 270 270 259 27 275
269 268 266 269 270 272 270 270 273 273 270 270 271 273 272 273 273 273 275 278 279 280 282 285 291 284 275 287 275 301 288 238 337 291 297 271 206 219 175 173 308 219 258 234 299 209 242
267 269 270 271 272 272 271 273 271 267 267 265 265 267 266 266 266 269 273 276 278 280 278 281 273 260 253 265 268 256 273 258 306 322 289 200 195 170 141 157 230 223 233 227 223 281 156
267 267 265 267 267 267 261 263 270 268 264 266 269 272 269 266 266 267 268 270 279 265 235 216 217 212 219 258 272 275 273 285 289 246 187 204 196 202 204 213 229 242 264 250 224 284 298
265 265 264 265 269 262 265 271 272 269 272 276 276 267 263 260 261 257 252 243 238 257 285 254 251 250 253 260 268 249 251 261 213 241 193 230 241 224 222 225 238 232 242 254 277 244 257
267 269 270 265 263 265 270 279 275 270 271 271 270 272 267 254 256 253 251 244 249 259 266 266 244 250 244 237 245 250 231 240 239 249 214 218 235 207 201 210 219 232 231 238 249 286 263
282 281 282 279 279 276 273 270 274 269 268 267 262 259 260 260 258 251 253 256 239 254 265 274 213 256 218 212 266 254 229 210 216 239 213 243 239 241 215 232 203 248 206 229 234 207 266
273 269 290 291 289 289 288 284 287 279 271 258 256 250 249 249 244 221 239 233 201 175 260 239 198 277 192 177 315 155 205 193 216 187 172 217 170 203 223 206 187 243 193 227 228 226 251
289 296 298 297 291 288 284 290 286 284 279 270 259 254 243 243 241 242 236 217 182 209 234 267 189 167 165 227 277 130 151 175 207 230 245 234 319 200 222 223 225 232 252 264 258 245 248
282 282 283 285 274 279 281 279 283 270 281 282 279 262 255 249 255 245 228 202 236 214 316 239 216 178 196 195 221 220 184 178 170 165 218 216 241 215 163 123 144 141 165 227 225 199 240
289 285 280 272 278 265 257 259 250 259 262 261 266 270 272 256 262 255 234 215 236 208 217 23 349 173 203 165 227 204 192 199 234 258 138 182 284 188 212 217 188 193 173 202 220 205 244
283 288 287 290 280 273 263 278 281 271 281 278 266 260 253 264 250 263 264 227 219 190 237 267 267 264 261 276 230 198 215 222 198 197 199 170 254 195 176 177 184 203 212 224 292 25 39
279 274 276 280 282 287 282 279 279 268 273 292 302 257 252 256 254 244 249 258 260 270 322 346 258 234 227 236 214 202 203 263 236 195 217 231 272 187 155 135 201 202 162 146 201 236 236
286 284 276 273 274 275 276 279 282 280 275 267 275 277 246 244 236 216 230 224 272 274 269 281 267 283 282 285 254 248 243 59 342 2 253 196 199 229 121 199 178 177 214 174 143 189 209
277 274 278 279 273 270 271 271 272 277 284 254 250 191 237 191 193 212 234 202 187 271 322 311 292 252 245 269 263 272 242 203 103 52 327 315 219 224 210 115 65 88 290 213 206 200 213
284 282 275 272 274 272 263 264 263 271 269 242 238 228 189 195 228 221 196 221 217 198 219 263 260 56 18 335 307 217 256 261 262 278 262 341 226 189 186 346 4 214 164 19 347 88 193
287 284 282 278 272 267 266 256 253 246 247 253 246 241 198 198 210 202 193 239 260 2 303 262 282 292 287 289 267 284 306 306 292 220 210 181 231 267 262 179 137 186 180 170 176 279 150
285 283 277 277 272 262 256 253 245 236 233 239 222 234 199 181 228 219 222 214 202 254 69 272 251 95 50 340 317 337 299 325 297 247 213 190 241 230 219 162 118 127 154 179 201 164 216
282 281 280 277 266 252 246 249 240 233 226 222 194 194 183 251 268 188 211 204 184 169 161 241 229 312 242 210 222 298 306 306 282 326 290 178 216 202 197 166 171 195 225 196 199 212 243
278 279 280 276 262 244 239 240 237 228 218 213 196 162 168 89 150 107 191 203 224 158 247 214 195 193 258 270 253 250 262 261 265 283 275 288 197 170 231 174 188 220 212 194 210 203 208
276 272 274 269 252 241 236 236 226 221 219 217 199 192 171 219 150 195 224 223 231 224 222 249 250 249 274 301 302 284 255 252 249 242 224 286 309 247 173 151 214 298 187 198 205 208 207
276 264 263 262 243 238 233 237 234 218 215 222 220 199 162 178 175 210 236 238 270 270 262 261 260 259 296 292 254 258 242 253 239 237 222 200 245 260 186 218 343 130 211 162 169 225 218
268 259 256 268 234 227 227 225 215 212 212 219 221 209 169 137 225 173 173 184 277 257 182 212 247 270 269 287 246 222 235 240 247 266 203 197 209 238 213 187 195 234 204 166 104 303 229
264 243 258 224 212 217 222 221 208 209 210 208 205 182 181 151 189 170 166 166 303 341 318 284 291 307 278 326 280 299 253 342 281 297 226 194 207 221 244 272 300 1 337 280 120 201 134
217 233 225 210 211 208 211 224 198 209 210 196 194 192 193 182 212 202 197 194 217 244 163 291 25 281 53 306 300 338 329 347 297 320 333 319 243 192 183 198 230 1 350 26 323 355 104
209 207 207 209 209 202 210 222 193 202 216 189 189 202 197 208 247 233 244 237 242 243 214 281 232 271 210 160 346 324 309 333 338 313 343 12 8 314 359 38 323 342 15 0 341 296 265